Regional Weather Roundup
Issued by NWS

Home | Current Version | Previous Version | Text Only | Print | Product List | Glossary Off
Versions: 1 2 3 4 5 6 7 8 9 10 11 12 13 14 15 16 17 18 19 20 21 22 23 24 25 26 27 28 29 30 31 32 33 34 35 36 37 38 39 40 41 42 43 44 45 46 47 48 49 50

000
ASUS43 KOAX 241810
RWRNE

WEATHER ROUNDUP FOR NEBRASKA
NATIONAL WEATHER SERVICE OMAHA NE
1200 PM CST FRI NOV 24 2017

NOTES: SATELLITE DATA IS BEING USED TO AUGMENT CLOUD COVER ABOVE
       12000 FEET.
       "FAIR" INDICATES FEW OR NO CLOUDS BELOW 12,000 FEET WITH NO
       SIGNIFICANT WEATHER AND/OR OBSTRUCTIONS TO VISIBILITY.


NEZ001>004-019>022-054>056-241900-
NEBRASKA PANHANDLE

CITY           SKY/WX    TMP DP  RH WIND       PRES   REMARKS
SCOTTSBLUFF    SUNNY     58  35  42 N22G31    29.88R
6HR MIN TEMP:  43; 6HR MAX TEMP:  63;

ALLIANCE       SUNNY     57  37  47 N25G32    29.83R
6HR MIN TEMP:  41; 6HR MAX TEMP:  58;

CHADRON        CLOUDY    54  30  40 NW18      29.85R
6HR MIN TEMP:  41; 6HR MAX TEMP:  61;

GORDON         CLOUDY    56  39  53 NW17G24   29.81R
6HR MIN TEMP:  48; 6HR MAX TEMP:  59;

KIMBALL        CLOUDY    60  32  34 N20G31    29.88R
SIDNEY         MOSUNNY   60  35  39 N26G33    29.86R
6HR MIN TEMP:  50; 6HR MAX TEMP:  66;

$$

NEZ057>060-069>072-079>082-241900-
SOUTHWEST NEBRASKA

CITY           SKY/WX    TMP DP  RH WIND       PRES   REMARKS
NORTH PLATTE   CLOUDY    65  36  34 N25G36    29.76R
6HR MIN TEMP:  32; 6HR MAX TEMP:  69;

IMPERIAL       CLOUDY    71  30  21 NW24G33   29.77S
6HR MIN TEMP:  44; 6HR MAX TEMP:  73;

LEXINGTON      SUNNY     71  36  27 N33G44    29.71R
MCCOOK         CLOUDY    76  34  21 NW37G55   29.69F
6HR MIN TEMP:  44; 6HR MAX TEMP:  78;

OGALLALA       CLOUDY    67  34  29 N26       29.79R
$$

NEZ005>010-023>029-035>040-094-241900-
NORTH CENTRAL NEBRASKA

CITY           SKY/WX    TMP DP  RH WIND       PRES   REMARKS
VALENTINE      MOSUNNY   62  38  40 NW28G38   29.73R
6HR MIN TEMP:  40; 6HR MAX TEMP:  62;

AINSWORTH      MOSUNNY   59  39  46 NW23G38   29.71F
BROKEN BOW     SUNNY     65  40  39 N31G43    29.71R
6HR MIN TEMP:  46; 6HR MAX TEMP:  70;

O`NEILL        SUNNY     64  40  41 NW29      29.66S
ORD            SUNNY     66  40  38 N37G54    29.66R
6HR MIN TEMP:  45; 6HR MAX TEMP:  71;

THEDFORD       CLOUDY    62  38  42 N23G29    29.77S
$$

NEZ041-046>049-061>064-073>077-083>087-241900-
SOUTH CENTRAL NEBRASKA

CITY           SKY/WX    TMP DP  RH WIND       PRES   REMARKS
GRAND ISLAND   SUNNY     73  38  27 NW35G51   29.61R
6HR MIN TEMP:  47; 6HR MAX TEMP:  74;

AURORA         SUNNY     74  37  26 NW38G47   29.59R
HASTINGS       SUNNY     75  35  23 NW37G49   29.61S
6HR MIN TEMP:  46; 6HR MAX TEMP:  76;

HEBRON         SUNNY     78  35  21 NW21G32   29.57F
HOLDREGE       SUNNY     76  38  25 NW35G43   29.66R
KEARNEY        MOSUNNY   73  38  27 N33G43    29.66R
YORK           SUNNY     73  39  29 NW29G39   29.56R
$$

NEZ011>018-030>034-042>045-241900-
NORTHEAST NEBRASKA

CITY           SKY/WX    TMP DP  RH WIND       PRES   REMARKS
NORFOLK        SUNNY     64  39  39 N35G46    29.56R
6HR MIN TEMP:  39; 6HR MAX TEMP:  67;

ALBION         SUNNY     67  39  35 N29G43    29.61R
BLAIR          SUNNY     67  41  38 W14G25    29.50R
COLUMBUS       SUNNY     70  40  33 NW28G41   29.55R
FREMONT        SUNNY     70  40  34 NW24G30   29.51R
TEKAMAH        SUNNY     68  41  37 NW20G28   29.49R
6HR MIN TEMP:  39; 6HR MAX TEMP:  68;

WAYNE          SUNNY     64  35  33 N33G43    29.56R
$$

NEZ050>053-065>068-078-088>093-241900-
SOUTHEAST NEBRASKA

CITY           SKY/WX    TMP DP  RH WIND       PRES   REMARKS
LINCOLN        SUNNY     75  38  26 W17G26    29.52F
6HR MIN TEMP:  46; 6HR MAX TEMP:  75;

OMAHA EPPLEY   MOSUNNY   70  41  34 SW13      29.47F
6HR MIN TEMP:  43; 6HR MAX TEMP:  70;

BEATRICE       SUNNY     74  41  30 W16G22    29.55F
FALLS CITY     SUNNY     70  40  33 SW18G25   29.53F
6HR MIN TEMP:  50; 6HR MAX TEMP:  70;

NEBRASKA CITY  SUNNY     69  42  36 SW22      29.51F
PLATTSMOUTH    SUNNY     72  41  32 W17       29.49F
$$

NEZ044-045-051>053-067-241900-
OMAHA AREA

CITY           SKY/WX    TMP DP  RH WIND       PRES   REMARKS
OMAHA EPPLEY   MOSUNNY   70  41  34 SW13      29.47F
6HR MIN TEMP:  43; 6HR MAX TEMP:  70;

BLAIR          SUNNY     67  41  38 W14G25    29.50R
FREMONT        SUNNY     70  40  34 NW24G30   29.51R
MILLARD        SUNNY     72  43  34 W13G22    29.50R
OFFUTT AFB     SUNNY     70  40  33 W16       29.47F
PLATTSMOUTH    SUNNY     72  41  32 W17       29.49F
WAHOO          FAIR      71  38  29 NW23G32   29.50R
$$




USA.gov is the U.S. government's official web portal to all federal, state and local government web resources and services.